POPACS 2

Last updated on Wed Oct 29 2025 00:03:53 GMT+0000 (Coordinated Universal Time)

1 39269U 13055E 25300.58946885 .00030189 00000+0 56702-3 0 9999 2 39269 80.9970 48.6250 0456830 216.1388 140.8150 14.80808499628651
UTC large
Height (km)
Speed (km/s)
/
Latitude / Longitude
Inclination (degrees)
Orbital Period (minutes)
Azimuth
Elevation
Range (km)
Doppler Factor

Next 0 passes for location: London (51.5072 / 0.1276)

Sorry there are no passes over London.